Location: São Paulo
(23.5507°S, 46.6334°W)
Time: 07:26:08
(UTC-03:00)

Vanguard 3 - Pass Details

Date: 19 February 2026
Orbit: 507 x 3205 km, 33.4° (Epoch: 7 March)

Event Time Altitude Azimuth Distance (km) Brightness Sun altitude
Exits shadow 04:07:44 34° 265° (W) 2,350 9.0 -24.4°
Maximum altitude 04:12:37 66° 194° (SSW) 2,031 9.1 -23.4°
Drops below altitude 10° 04:28:07 10° 114° (ESE) 5,575 12.6 -20.2°
Sets 04:33:17 0° 110° (ESE) 6,870 13.6 -19.1°
